Previsão horária em Castelo Branco

Hoje, 13 Abril, Terça-feira

Tempo Temperatura Precipitação Vento Pressão Humidade
00:00 +14°C° 0 mm 1 m/s 734 mmHg 71%
01:00 +14°C° 0.1 mm 1 m/s 733 mmHg 72%
02:00 +13°C° 0.1 mm 1 m/s 733 mmHg 73%
03:00 +12°C° 0.1 mm 0 m/s 733 mmHg 73%
04:00 +13°C° 0.9 mm 1 m/s 733 mmHg 79%
05:00 +12°C° 0.9 mm 1 m/s 733 mmHg 84%
06:00 +12°C° 0 mm 1 m/s 733 mmHg 92%
07:00 +12°C° 0.7 mm 1 m/s 733 mmHg 91%
08:00 +12°C° 0.7 mm 1 m/s 733 mmHg 91%
09:00 +12°C° 0.7 mm 2 m/s 734 mmHg 91%
10:00 +13°C° 0.5 mm 2 m/s 734 mmHg 91%
11:00 +13°C° 0.5 mm 2 m/s 734 mmHg 90%
12:00 +13°C° 0.5 mm 2 m/s 734 mmHg 90%
13:00 +14°C° 0 mm 1 m/s 733 mmHg 86%
14:00 +15°C° 0 mm 1 m/s 733 mmHg 81%
15:00 +16°C° 0 mm 1 m/s 733 mmHg 77%
16:00 +21°C° 0.1 mm 1 m/s 732 mmHg 63%
17:00 +20°C° 0.1 mm 1 m/s 732 mmHg 68%
18:00 +19°C° 0.1 mm 1 m/s 732 mmHg 73%
19:00 +19°C° 0 mm 1 m/s 732 mmHg 75%
20:00 +18°C° 0 mm 1 m/s 732 mmHg 77%
21:00 +16°C° 0 mm 1 m/s 732 mmHg 80%
22:00 +15°C° 0 mm 1 m/s 732 mmHg 81%
23:00 +15°C° 0 mm 1 m/s 732 mmHg 82%

Amanhã, 14 Abril, Quarta-feira

Tempo Temperatura Precipitação Vento Pressão Humidade
00:00 +14°C° 0 mm 1 m/s 731 mmHg 83%
01:00 +14°C° 0 mm 1 m/s 731 mmHg 84%
02:00 +13°C° 0 mm 1 m/s 731 mmHg 85%
03:00 +12°C° 0 mm 1 m/s 730 mmHg 86%
04:00 +12°C° 0 mm 1 m/s 730 mmHg 87%
05:00 +12°C° 0 mm 2 m/s 730 mmHg 87%
06:00 +12°C° 0 mm 2 m/s 730 mmHg 87%
07:00 +13°C° 0 mm 2 m/s 730 mmHg 80%
08:00 +14°C° 0 mm 3 m/s 730 mmHg 74%
09:00 +17°C° 0 mm 3 m/s 730 mmHg 67%
10:00 +18°C° 0 mm 3 m/s 730 mmHg 63%
11:00 +19°C° 0 mm 3 m/s 730 mmHg 60%
12:00 +21°C° 0 mm 3 m/s 729 mmHg 56%
13:00 +21°C° 0.7 mm 3 m/s 729 mmHg 59%
14:00 +21°C° 0.7 mm 2 m/s 728 mmHg 62%
15:00 +21°C° 0.7 mm 2 m/s 728 mmHg 64%
16:00 +20°C° 1.2 mm 2 m/s 728 mmHg 70%
17:00 +20°C° 1.2 mm 1 m/s 727 mmHg 76%
18:00 +19°C° 1.2 mm 1 m/s 727 mmHg 82%
19:00 +18°C° 1.1 mm 1 m/s 728 mmHg 85%
20:00 +16°C° 1.1 mm 1 m/s 728 mmHg 89%
21:00 +15°C° 1.1 mm 1 m/s 728 mmHg 92%
22:00 +15°C° 1 mm 1 m/s 728 mmHg 94%
23:00 +15°C° 1 mm 1 m/s 728 mmHg 95%

Depois de amanhã, 15 Abril, Quinta-feira

Tempo Temperatura Precipitação Vento Pressão Humidade
00:00 +15°C° 1 mm 1 m/s 727 mmHg 97%
01:00 +14°C° 0.3 mm 1 m/s 727 mmHg 97%
02:00 +14°C° 0.3 mm 1 m/s 727 mmHg 97%
03:00 +14°C° 0.3 mm 1 m/s 727 mmHg 97%
04:00 +14°C° 0.4 mm 1 m/s 727 mmHg 97%
05:00 +14°C° 0.4 mm 2 m/s 728 mmHg 97%
06:00 +14°C° 0.4 mm 2 m/s 728 mmHg 96%
07:00 +14°C° 0.3 mm 2 m/s 728 mmHg 94%
08:00 +13°C° 0.3 mm 3 m/s 728 mmHg 91%
09:00 +13°C° 0.3 mm 3 m/s 729 mmHg 88%
10:00 +14°C° 0 mm 3 m/s 729 mmHg 83%
11:00 +16°C° 0 mm 3 m/s 729 mmHg 77%
12:00 +17°C° 0 mm 3 m/s 729 mmHg 72%
13:00 +18°C° 0.1 mm 3 m/s 728 mmHg 67%
14:00 +19°C° 0.1 mm 3 m/s 728 mmHg 62%
15:00 +20°C° 0.1 mm 2 m/s 728 mmHg 57%
16:00 +20°C° 0.3 mm 2 m/s 728 mmHg 63%
17:00 +20°C° 0.3 mm 1 m/s 728 mmHg 69%
18:00 +19°C° 0.3 mm 1 m/s 728 mmHg 75%
19:00 +18°C° 0.2 mm 1 m/s 728 mmHg 78%
20:00 +16°C° 0.2 mm 1 m/s 729 mmHg 82%
21:00 +15°C° 0.2 mm 1 m/s 729 mmHg 85%
22:00 +14°C° 0 mm 1 m/s 729 mmHg 87%
23:00 +13°C° 0 mm 0 m/s 729 mmHg 88%

16 Abril, Sexta-feira

Tempo Temperatura Precipitação Vento Pressão Humidade
00:00 +12°C° 0 mm 0 m/s 729 mmHg 89%
01:00 +12°C° 0 mm 0 m/s 729 mmHg 90%
02:00 +11°C° 0 mm 0 m/s 729 mmHg 91%
03:00 +11°C° 0 mm 0 m/s 729 mmHg 92%
04:00 +11°C° 0 mm 0 m/s 729 mmHg 92%
05:00 +11°C° 0 mm 0 m/s 729 mmHg 92%
06:00 +11°C° 0 mm 0 m/s 729 mmHg 92%
07:00 +13°C° 0 mm 0 m/s 729 mmHg 86%
08:00 +14°C° 0 mm 0 m/s 730 mmHg 80%
09:00 +16°C° 0 mm 0 m/s 730 mmHg 75%
10:00 +19°C° 0 mm 1 m/s 730 mmHg 67%
11:00 +21°C° 0 mm 1 m/s 730 mmHg 60%
12:00 +23°C° 0 mm 2 m/s 730 mmHg 52%
13:00 +23°C° 0 mm 2 m/s 729 mmHg 50%
14:00 +23°C° 0 mm 2 m/s 729 mmHg 48%
15:00 +24°C° 0 mm 2 m/s 728 mmHg 46%
16:00 +21°C° 0 mm 2 m/s 728 mmHg 51%
17:00 +20°C° 0 mm 2 m/s 728 mmHg 56%
18:00 +19°C° 0 mm 2 m/s 728 mmHg 61%
19:00 +17°C° 0 mm 2 m/s 729 mmHg 65%
20:00 +16°C° 0 mm 1 m/s 729 mmHg 69%
21:00 +14°C° 0 mm 1 m/s 729 mmHg 73%
22:00 +13°C° 0 mm 2 m/s 730 mmHg 72%
23:00 +13°C° 0 mm 2 m/s 730 mmHg 70%

17 Abril, Sábado

Tempo Temperatura Precipitação Vento Pressão Humidade
00:00 +11°C° 0 mm 3 m/s 730 mmHg 68%
01:00 +10°C° 0 mm 3 m/s 730 mmHg 63%
02:00 +8°C° 0 mm 3 m/s 731 mmHg 58%
03:00 +7°C° 0 mm 3 m/s 731 mmHg 52%
04:00 +7°C° 0 mm 3 m/s 731 mmHg 52%
05:00 +5°C° 0 mm 3 m/s 732 mmHg 52%
06:00 +5°C° 0 mm 3 m/s 732 mmHg 52%
07:00 +6°C° 0 mm 4 m/s 732 mmHg 48%
08:00 +8°C° 0 mm 4 m/s 733 mmHg 44%
09:00 +10°C° 0 mm 4 m/s 733 mmHg 41%
10:00 +12°C° 0 mm 4 m/s 733 mmHg 37%
11:00 +14°C° 0 mm 4 m/s 733 mmHg 34%
12:00 +17°C° 0 mm 3 m/s 733 mmHg 31%
13:00 +18°C° 0 mm 3 m/s 733 mmHg 30%
14:00 +19°C° 0 mm 2 m/s 733 mmHg 29%
15:00 +20°C° 0 mm 2 m/s 732 mmHg 28%
16:00 +19°C° 0 mm 2 m/s 733 mmHg 34%
17:00 +19°C° 0 mm 1 m/s 733 mmHg 40%
18:00 +18°C° 0 mm 1 m/s 733 mmHg 46%
19:00 +16°C° 0 mm 1 m/s 733 mmHg 48%
20:00 +14°C° 0 mm 1 m/s 733 mmHg 49%
21:00 +12°C° 0 mm 1 m/s 734 mmHg 51%
22:00 +12°C° 0 mm 1 m/s 734 mmHg 52%
23:00 +11°C° 0 mm 1 m/s 734 mmHg 53%

18 Abril, Domingo

Tempo Temperatura Precipitação Vento Pressão Humidade
00:00 +10°C° 0 mm 0 m/s 734 mmHg 55%
01:00 +10°C° 0 mm 0 m/s 734 mmHg 56%
02:00 +9°C° 0 mm 0 m/s 733 mmHg 57%
03:00 +8°C° 0 mm 0 m/s 733 mmHg 58%
04:00 +9°C° 0 mm 1 m/s 733 mmHg 58%
05:00 +9°C° 0 mm 1 m/s 733 mmHg 59%
06:00 +9°C° 0 mm 1 m/s 733 mmHg 59%
07:00 +10°C° 0 mm 0 m/s 733 mmHg 54%
08:00 +13°C° 0 mm 0 m/s 734 mmHg 48%
09:00 +15°C° 0 mm 0 m/s 734 mmHg 43%
10:00 +17°C° 0 mm 0 m/s 734 mmHg 39%
11:00 +19°C° 0 mm 0 m/s 734 mmHg 35%
12:00 +23°C° 0 mm 1 m/s 734 mmHg 32%
13:00 +23°C° 0 mm 1 m/s 733 mmHg 31%
14:00 +23°C° 0 mm 1 m/s 733 mmHg 30%
15:00 +24°C° 0 mm 2 m/s 732 mmHg 29%
16:00 +23°C° 0 mm 2 m/s 732 mmHg 36%
17:00 +21°C° 0 mm 2 m/s 732 mmHg 43%
18:00 +20°C° 0 mm 2 m/s 732 mmHg 49%
19:00 +18°C° 0 mm 2 m/s 732 mmHg 54%
20:00 +16°C° 0 mm 2 m/s 732 mmHg 59%
21:00 +14°C° 0 mm 1 m/s 732 mmHg 63%
22:00 +14°C° 0 mm 1 m/s 732 mmHg 63%
23:00 +14°C° 0 mm 1 m/s 732 mmHg 63%
Mostrar mais

Necessitamos do seu Consentimento

A Meteoprog e os seus Fornecedores de Serviços podem armazenar e aceder a dados pessoais como cookies, identificadores do dispositivo ou outras tecnologias semelhantes existentes no seu dispositivo e processar estes dados para personalizar conteúdos e anúncios, assim como funcionalidades nas redes sociais e análise de tráfego.

  • Armazenar e/ou aceder a informações no seu dispositivo

    Os cookies, identificadores do dispositivo ou outras informações podem ser armazenados ou acedidos no seu dispositivo, para os fins acima indicados.

  • Anúncios e conteúdos personalizados, medição de anúncios e conteúdos, dados sobre o público-alvo e desenvolvimento de produtos

    Os anúncios e os conteúdos podem ser personalizados com base num perfil. Podem ser adicionados dados adicionais para uma maior personalização dos anúncios e dos conteúdos. A eficácia dos anúncios e dos conteúdos pode ser medida. Podem ser obtidas informações sobre o público que visualizou os anúncios e os conteúdos. Estes dados podem ser usados para desenvolver ou melhorar sistemas, softwares ou a experiência do utilizador.

Ao clicar em "Eu concordo”, permitirá o uso de cookies, identificadores do dispositivo e web beacons mencionados ou outras tecnologias semelhantes. As configurações do navegador do seu dispositivo podem ser alteradas.

Para certos fins, podem ser invocados interesses legítimos ao invés de consentimento. Pode ler mais informação sobre este assunto na nossa Política de Privacidade e Cookies.